Location: Kitt Peak
(31.9639°N, 111.5992°W)
Time: 03:48:12
(UTC-07:00)

CUTE-I - Visible Passes

Search period start: 17 September 2024 00:00
Search period end: 27 September 2024 00:00
Orbit: 807 x 820 km, 98.7° (Epoch: 16 September)

Date Brightness Start Highest point End Pass type
(mag) Time Alt. Az. Time Alt. Az. Time Alt. Az.
17 Sep ? 19:18:19 10° SW 19:21:24 15° W 19:24:29 10° WNW visible
18 Sep ? 18:54:09 10° SSW 18:58:35 26° W 19:03:02 10° NW visible
19 Sep ? 05:36:06 10° NE 05:39:34 17° E 05:43:00 10° SE visible
21 Sep ? 19:28:47 10° WSW 19:30:48 12° W 19:32:49 10° WNW visible
22 Sep ? 19:03:57 10° SW 19:07:57 21° W 19:11:58 10° NW visible
23 Sep ? 05:44:54 10° NE 05:48:55 22° E 05:52:56 10° SE visible
23 Sep ? 18:40:17 10° SSW 18:45:09 36° W 18:50:03 10° NNW visible
24 Sep ? 05:23:58 10° ENE 05:26:04 12° E 05:28:10 10° ESE visible
26 Sep ? 19:13:52 10° SW 19:17:17 17° W 19:20:42 10° NW visible
